Zurück zum Katalog

BLOCK DM-SL R/B

AktivHEO
NORAD 28645·ROCKET BODY· XX

Gestartet Apr 26, 2005 von Sea Launch Platform

Loading…

Nächste Überflüge (nächste 24 Stunden)

TLE

AktuellSource: Space-Track

Epoche: Sep 14, 2026, 14:29 UTC

1 28645U 05015B   26257.60356957  .00009530  00000-0  11123-2 0  9996
2 28645   0.0947 347.0539 6467977 150.9614 295.7490  3.38597440220913

Verfolge BLOCK DM-SL R/B in Echtzeit mit AllMySat

Download on the App Store